DLH2HL EDDH-EDDM

Flight info

Callsign DLH2HL
Flight time N/A
Altitude 35000
Route AMLUH2G/33 AMLUH M852 DENIX DCT ZUCKA DCT SODRO/N0443F310 T703 LULAR/N0442F300 T105 LANDU LANDU2B
Aircraft A321/M-SDE3FGHIRWY/LB1

Departure

Time 2026-04-24 17:04
Airport Hamburg Helmut Schmidt Airport (EDDH)

Arrival

Time N/A
Airport Munich Airport (EDDM)
Time Latitude Longitude Altitude Speed Heading
2026-04-24 16:33 53.63333 10.00347 51 ft 0 kts 86°
2026-04-24 16:53 53.63333 10.00334 51 ft 4 kts 86°
2026-04-24 16:53 53.63331 10.00288 51 ft 4 kts 86°
2026-04-24 16:53 53.63329 10.00243 49 ft 4 kts 86°
2026-04-24 16:54 53.63328 10.00207 48 ft 4 kts 98°
2026-04-24 16:54 53.63338 10.00172 47 ft 4 kts 153°
2026-04-24 16:54 53.63359 10.00164 48 ft 2 kts 176°
2026-04-24 16:54 53.63361 10.00164 48 ft 0 kts 176°
2026-04-24 16:57 53.63360 10.00164 48 ft 1 kts 176°
2026-04-24 16:57 53.63347 10.00165 48 ft 3 kts 176°
2026-04-24 16:57 53.63321 10.00169 48 ft 5 kts 176°
2026-04-24 16:57 53.63275 10.00174 51 ft 8 kts 176°
2026-04-24 16:58 53.63215 10.00181 51 ft 10 kts 176°
2026-04-24 16:58 53.63142 10.00189 51 ft 11 kts 176°
2026-04-24 16:58 53.63060 10.00175 49 ft 12 kts 206°
2026-04-24 16:58 53.62986 10.00093 51 ft 13 kts 213°
2026-04-24 16:59 53.62931 10.00020 50 ft 10 kts 231°
2026-04-24 16:59 53.62902 9.99932 50 ft 9 kts 243°
2026-04-24 16:59 53.62889 9.99728 50 ft 10 kts 325°
2026-04-24 17:00 53.62929 9.99690 50 ft 0 kts 332°
2026-04-24 17:03 53.62980 9.99645 49 ft 35 kts 332°
2026-04-24 17:04 53.63432 9.99257 50 ft 108 kts 333°
2026-04-24 17:04 53.65393 9.97772 465 ft 179 kts 339°
2026-04-24 17:04 53.66572 9.96966 1150 ft 183 kts 332°
2026-04-24 17:05 53.67705 9.95965 1849 ft 186 kts 328°
2026-04-24 17:05 53.68885 9.94922 2362 ft 201 kts 342°
2026-04-24 17:05 53.71731 9.94758 3845 ft 211 kts
2026-04-24 17:06 53.73100 9.95733 4587 ft 224 kts 40°
2026-04-24 17:06 53.74370 10.00614 5021 ft 234 kts 77°
2026-04-24 17:06 53.74184 10.03396 5650 ft 244 kts 104°
2026-04-24 17:07 53.73741 10.05207 5929 ft 262 kts 115°
2026-04-24 17:07 53.72394 10.08935 6400 ft 289 kts 117°
2026-04-24 17:07 53.70375 10.14919 7696 ft 300 kts 115°
2026-04-24 17:08 53.67644 10.20338 9076 ft 314 kts 147°
2026-04-24 17:08 53.65649 10.21885 9757 ft 317 kts 165°
2026-04-24 17:08 53.63507 10.22857 10363 ft 325 kts 166°
2026-04-24 17:09 53.58831 10.24958 10626 ft 369 kts 166°
2026-04-24 17:09 53.53733 10.27285 11574 ft 384 kts 166°
2026-04-24 17:10 53.51191 10.28457 12206 ft 385 kts 166°
2026-04-24 17:10 53.43369 10.32027 14117 ft 392 kts 166°
2026-04-24 17:11 53.35392 10.35630 15747 ft 400 kts 166°
2026-04-24 17:12 53.21768 10.41728 18370 ft 413 kts 167°